User: anonymous   Login
Location: Unspecified
(0.0000°N, 0.0000°E)
Time: 20:48:55
(UTC+00:00)
Language:

STARLINK-31136 - Orbit

View from above orbital plane
View from above orbital plane
View from above satellite
View from above satellite

Ground track
Ground track

The orbit is defined by the following mean orbital elements,

1 58772U          26145.06460019 +.00000000 +00000-0 +75135-4 0 00001
2 58772  53.1607  18.9181 0001244  84.8052 275.3091 15.30196847    00
Epoch (UTC): 25 May 2026 01:33:01
Eccentricity: 0.0001244
inclination: 53.1607°
perigee height: 474 km
apogee height: 476 km
right ascension of ascending node: 18.9181°
argument of perigee: 84.8052°
revolutions per day: 15.30196847
mean anomaly at epoch: 275.3091°

The dashed part of the orbit path shows where the satellite is in the earth's shadow,  

DLR